Location: La Trinit�
(48.1620°N, 3.4512°W)
Time: 16:39:07
(UTC+00:00)

Cosmos 1844 Rocket - Pass Details

Date: 08 May 2021
Orbit: 823 x 846 km, 71.0° (Epoch: 24 June)

Event Time Altitude Azimuth Distance (km) Brightness Sun altitude
Rises 21:12:37 0° 218° (SW) 3,347 5.7 -13.5°
Reaches altitude 10° 21:15:05 10° 222° (SW) 2,419 5.0 -13.7°
Maximum altitude 21:20:33 59° 302° (WNW) 951 3.3 -14.4°
Drops below altitude 10° 21:26:04 10° 22° (NNE) 2,443 5.5 -15.0°
Sets 21:28:34 0° 26° (NNE) 3,384 6.2 -15.2°
